Tri-Cities, TN

10:07 AM EDT on May 23, 2017 (GMT -0400)
Tri-Cities Regional Tennessee / Virginia

Weather History for KTRI - March, 2014

Change the Weather History Date:

Friday, March 28, 2014

  Actual Average Record
Temperature  
Mean Temperature 60 °F 50 °F  
Max Temperature 66 °F 63 °F 82 °F (1945)
Min Temperature 54 °F 37 °F 19 °F (1955)
Degree Days  
Heating Degree Days 5 15  
Month to date heating degree days 565 524  
Since 1 July heating degree days 4060 3906  
Cooling Degree Days 0 0  
Month to date cooling degree days 0 0  
Year to date cooling degree days 0 0  
Growing Degree Days 10 (Base 50)    
Moisture  
Dew Point 42 °F    
Average Humidity 52    
Maximum Humidity 77    
Minimum Humidity 26    
Precipitation  
Precipitation 0.01 in 0.11 in 0.85 in (1996)
Month to date precipitation 1.65 3.10  
Year to date precipitation 6.71 9.92  
Snow  
Snow 0.00 in 0.00 in - ()
Month to date snowfall 0.7 1.3  
Since 1 July snowfall 13.0 12.1  
Snow Depth 0.00 in    
Sea Level Pressure  
Sea Level Pressure 30.02 in    
Wind  
Wind Speed 5 mph (WSW)    
Max Wind Speed 14 mph    
Max Gust Speed 20 mph    
Visibility 10 miles    
Events Rain    
T = Trace of Precipitation, MM = Missing Value Source: NWS Daily Summary

Daily Weather History Graph

Daily Weather History Graph

Search for Another Location

Airport or City:

Trip Planner

Search our weather history database for the weather conditions in past years. The results will help you decide how hot, cold, wet, or windy it might be!

Date:

Astronomy

Mar. 28, 2014 Rise Set
Actual Time 7:21 AM EDT 7:48 PM EDT
Civil Twilight 6:55 AM EDT 8:14 PM EDT
Nautical Twilight 6:25 AM EDT 8:44 PM EDT
Astronomical Twilight 5:54 AM EDT 9:15 PM EDT
Moon 5:47 AM EDT (3/28) 5:46 PM EDT (3/28)
Length of Visible Light 13h 18m
Length of Day
12h 26m
Waning Crescent, 6% of the Moon is Illuminated
Mar 28
Waning Crescent
Mar 30
New
Apr 7
First Quarter
Apr 15
Full
Apr 22
Last Quarter

Hourly Weather History & Observations

Time (EDT) Temp. Dew Point Humidity Pressure Visibility Wind Dir Wind Speed Gust Speed Precip Events Conditions
12:53 AM 55.9 °F 21.9 °F 27% 30.06 in 10.0 mi South 6.9 mph - N/A   Mostly Cloudy
1:53 AM 57.0 °F 25.0 °F 29% 30.05 in 10.0 mi South 8.1 mph - N/A   Scattered Clouds
2:53 AM 55.9 °F 28.9 °F 36% 30.04 in 10.0 mi South 5.8 mph - N/A   Scattered Clouds
3:53 AM 55.9 °F 33.1 °F 42% 30.01 in 10.0 mi South 10.4 mph - N/A   Mostly Cloudy
4:53 AM 55.9 °F 36.0 °F 47% 30.00 in 10.0 mi SSE 5.8 mph - N/A   Scattered Clouds
5:53 AM 57.0 °F 39.0 °F 51% 29.99 in 10.0 mi South 11.5 mph - N/A   Overcast
6:53 AM 57.0 °F 39.9 °F 53% 29.99 in 10.0 mi SSW 5.8 mph - 0.00 in   Mostly Cloudy
7:53 AM 57.9 °F 41.0 °F 53% 30.00 in 10.0 mi SSW 9.2 mph 18.4 mph N/A   Overcast
8:53 AM 59.0 °F 42.1 °F 53% 30.02 in 10.0 mi SSW 4.6 mph - 0.00 in   Overcast
9:53 AM 60.1 °F 43.0 °F 53% 30.03 in 10.0 mi WSW 4.6 mph - N/A   Overcast
10:53 AM 61.0 °F 45.0 °F 56% 30.03 in 9.0 mi Variable 3.5 mph - 0.00 in Rain Light Rain
11:53 AM 62.1 °F 46.9 °F 58% 30.05 in 10.0 mi NNW 6.9 mph - 0.01 in   Mostly Cloudy
12:53 PM 63.0 °F 46.0 °F 54% 30.05 in 10.0 mi West 5.8 mph - N/A   Overcast
1:53 PM 64.0 °F 46.0 °F 52% 30.02 in 10.0 mi WNW 3.5 mph - N/A   Overcast
2:53 PM 64.0 °F 46.9 °F 54% 30.00 in 10.0 mi NW 9.2 mph - 0.00 in   Overcast
3:53 PM 62.1 °F 48.0 °F 60% 30.01 in 10.0 mi WNW 8.1 mph - N/A   Overcast
4:53 PM 63.0 °F 48.0 °F 58% 30.02 in 10.0 mi NW 6.9 mph - N/A   Overcast
5:53 PM 63.0 °F 48.9 °F 60% 30.02 in 10.0 mi North 3.5 mph - N/A   Overcast
6:53 PM 62.1 °F 48.0 °F 60% 30.02 in 10.0 mi North 5.8 mph - N/A   Overcast
7:53 PM 60.1 °F 48.0 °F 64% 30.03 in 10.0 mi North 3.5 mph - N/A   Overcast
8:53 PM 59.0 °F 48.0 °F 67% 30.02 in 10.0 mi Calm Calm - N/A   Overcast
9:53 PM 57.0 °F 48.0 °F 72% 30.04 in 10.0 mi Calm Calm - N/A   Mostly Cloudy
10:53 PM 55.0 °F 46.9 °F 74% 30.03 in 10.0 mi Calm Calm - N/A   Overcast
11:53 PM 55.0 °F 48.0 °F 77% 30.03 in 10.0 mi Calm Calm - N/A   Overcast